• In Belarus
  • List of Countries
  • For 7 days
  • Water Temperature
  • Satellite Maps
  • Weather Map
  • Weather Widgets
  • user-avatar
    Login

    Hourly Weather Omaruru

    Today, 20 July, Saturday

    Time Temperature Precipitation Wind Pressure Humidity
    00:00 +12°C° 0 mm 1 mps 660 mmHg 42%
    01:00 +10°C° 0 mm 2 mps 659 mmHg 40%
    02:00 +10°C° 0 mm 2 mps 659 mmHg 37%
    03:00 +10°C° 0 mm 2 mps 659 mmHg 34%
    04:00 +10°C° 0 mm 2 mps 659 mmHg 31%
    05:00 +10°C° 0 mm 2 mps 659 mmHg 29%
    06:00 +10°C° 0 mm 2 mps 660 mmHg 27%
    07:00 +10°C° 0 mm 2 mps 660 mmHg 25%
    08:00 +16°C° 0 mm 3 mps 662 mmHg 20%
    09:00 +21°C° 0 mm 3 mps 663 mmHg 15%
    10:00 +26°C° 0 mm 3 mps 665 mmHg 10%
    11:00 +28°C° 0 mm 3 mps 664 mmHg 9%
    12:00 +29°C° 0 mm 3 mps 664 mmHg 7%
    13:00 +30°C° 0 mm 2 mps 663 mmHg 6%
    14:00 +30°C° 0 mm 2 mps 663 mmHg 6%
    15:00 +30°C° 0 mm 2 mps 663 mmHg 5%
    16:00 +31°C° 0 mm 2 mps 663 mmHg 5%
    17:00 +27°C° 0 mm 3 mps 662 mmHg 8%
    18:00 +22°C° 0 mm 3 mps 661 mmHg 11%
    19:00 +18°C° 0 mm 3 mps 660 mmHg 15%
    20:00 +17°C° 0 mm 3 mps 660 mmHg 17%
    21:00 +16°C° 0 mm 3 mps 660 mmHg 20%
    22:00 +15°C° 0 mm 2 mps 660 mmHg 23%
    23:00 +14°C° 0 mm 2 mps 660 mmHg 26%

    Tomorrow, 21 July, Sunday

    Time Temperature Precipitation Wind Pressure Humidity
    00:00 +13°C° 0 mm 2 mps 660 mmHg 29%
    01:00 +12°C° 0 mm 2 mps 659 mmHg 32%
    02:00 +12°C° 0 mm 2 mps 659 mmHg 31%
    03:00 +10°C° 0 mm 2 mps 659 mmHg 29%
    04:00 +10°C° 0 mm 2 mps 659 mmHg 28%
    05:00 +10°C° 0 mm 2 mps 660 mmHg 25%
    06:00 +10°C° 0 mm 2 mps 660 mmHg 23%
    07:00 +10°C° 0 mm 2 mps 660 mmHg 21%
    08:00 +16°C° 0 mm 3 mps 662 mmHg 17%
    09:00 +21°C° 0 mm 4 mps 663 mmHg 13%
    10:00 +27°C° 0 mm 4 mps 665 mmHg 9%
    11:00 +28°C° 0 mm 4 mps 664 mmHg 7%
    12:00 +29°C° 0 mm 4 mps 664 mmHg 6%
    13:00 +32°C° 0 mm 4 mps 663 mmHg 5%
    14:00 +32°C° 0 mm 4 mps 663 mmHg 5%
    15:00 +31°C° 0 mm 3 mps 663 mmHg 5%
    16:00 +31°C° 0 mm 3 mps 663 mmHg 5%
    17:00 +27°C° 0 mm 3 mps 662 mmHg 11%
    18:00 +21°C° 0 mm 3 mps 661 mmHg 18%
    19:00 +17°C° 0 mm 2 mps 660 mmHg 25%
    20:00 +16°C° 0 mm 3 mps 660 mmHg 22%
    21:00 +14°C° 0 mm 3 mps 661 mmHg 20%
    22:00 +14°C° 0 mm 3 mps 661 mmHg 18%
    23:00 +14°C° 0 mm 3 mps 661 mmHg 18%

    Day after tomorrow, 22 July, Monday

    Time Temperature Precipitation Wind Pressure Humidity
    00:00 +13°C° 0 mm 3 mps 660 mmHg 18%
    01:00 +13°C° 0 mm 3 mps 660 mmHg 18%
    02:00 +12°C° 0 mm 3 mps 660 mmHg 19%
    03:00 +11°C° 0 mm 3 mps 659 mmHg 20%
    04:00 +11°C° 0 mm 3 mps 659 mmHg 22%
    05:00 +11°C° 0 mm 3 mps 659 mmHg 20%
    06:00 +10°C° 0 mm 3 mps 660 mmHg 19%
    07:00 +10°C° 0 mm 3 mps 660 mmHg 17%
    08:00 +16°C° 0 mm 3 mps 661 mmHg 14%
    09:00 +21°C° 0 mm 4 mps 662 mmHg 10%
    10:00 +27°C° 0 mm 5 mps 664 mmHg 7%
    11:00 +28°C° 0 mm 5 mps 663 mmHg 7%
    12:00 +30°C° 0 mm 5 mps 663 mmHg 6%
    13:00 +32°C° 0 mm 5 mps 662 mmHg 6%
    14:00 +32°C° 0 mm 5 mps 662 mmHg 6%
    15:00 +32°C° 0 mm 4 mps 661 mmHg 6%
    16:00 +30°C° 0 mm 4 mps 661 mmHg 6%
    17:00 +26°C° 0 mm 4 mps 660 mmHg 15%
    18:00 +20°C° 0 mm 3 mps 659 mmHg 25%
    19:00 +16°C° 0 mm 2 mps 658 mmHg 34%
    20:00 +15°C° 0 mm 2 mps 659 mmHg 36%
    21:00 +14°C° 0 mm 2 mps 659 mmHg 37%
    22:00 +13°C° 0 mm 2 mps 659 mmHg 39%
    23:00 +12°C° 0 mm 1 mps 658 mmHg 43%

    23 July, Tuesday

    Time Temperature Precipitation Wind Pressure Humidity
    00:00 +11°C° 0 mm 1 mps 658 mmHg 47%
    01:00 +10°C° 0 mm 1 mps 657 mmHg 51%
    02:00 +8°C° 0 mm 0 mps 657 mmHg 54%
    03:00 +8°C° 0 mm 0 mps 657 mmHg 57%
    04:00 +7°C° 0 mm 0 mps 657 mmHg 60%
    05:00 +8°C° 0 mm 0 mps 657 mmHg 53%
    06:00 +8°C° 0 mm 0 mps 658 mmHg 47%
    07:00 +9°C° 0 mm 0 mps 658 mmHg 40%
    08:00 +14°C° 0 mm 1 mps 660 mmHg 32%
    09:00 +18°C° 0 mm 2 mps 661 mmHg 24%
    10:00 +24°C° 0 mm 2 mps 662 mmHg 16%
    11:00 +26°C° 0 mm 4 mps 662 mmHg 14%
    12:00 +27°C° 0 mm 5 mps 662 mmHg 13%
    13:00 +29°C° 0 mm 6 mps 662 mmHg 11%
    14:00 +28°C° 0 mm 6 mps 661 mmHg 12%
    15:00 +27°C° 0 mm 6 mps 661 mmHg 13%
    16:00 +26°C° 0 mm 7 mps 661 mmHg 15%
    17:00 +21°C° 0 mm 5 mps 661 mmHg 25%
    18:00 +17°C° 0 mm 4 mps 660 mmHg 36%
    19:00 +12°C° 0 mm 3 mps 660 mmHg 47%
    20:00 +10°C° 0 mm 2 mps 660 mmHg 53%
    21:00 +9°C° 0 mm 2 mps 660 mmHg 59%
    22:00 +9°C° 0 mm 1 mps 660 mmHg 65%
    23:00 +8°C° 0 mm 1 mps 659 mmHg 66%

    24 July, Wednesday

    Time Temperature Precipitation Wind Pressure Humidity
    00:00 +7°C° 0 mm 1 mps 659 mmHg 67%
    01:00 +7°C° 0 mm 1 mps 658 mmHg 69%
    02:00 +7°C° 0 mm 1 mps 658 mmHg 66%
    03:00 +7°C° 0 mm 1 mps 657 mmHg 64%
    04:00 +6°C° 0 mm 1 mps 657 mmHg 61%
    05:00 +6°C° 0 mm 2 mps 657 mmHg 54%
    06:00 +6°C° 0 mm 2 mps 658 mmHg 47%
    07:00 +6°C° 0 mm 2 mps 658 mmHg 39%
    08:00 +13°C° 0 mm 2 mps 659 mmHg 29%
    09:00 +18°C° 0 mm 2 mps 661 mmHg 18%
    10:00 +24°C° 0 mm 2 mps 662 mmHg 8%
    11:00 +26°C° 0 mm 2 mps 662 mmHg 7%
    12:00 +27°C° 0 mm 2 mps 662 mmHg 6%
    13:00 +29°C° 0 mm 2 mps 662 mmHg 5%
    14:00 +29°C° 0 mm 2 mps 662 mmHg 5%
    15:00 +29°C° 0 mm 2 mps 661 mmHg 5%
    16:00 +29°C° 0 mm 3 mps 661 mmHg 5%
    17:00 +25°C° 0 mm 3 mps 661 mmHg 10%
    18:00 +20°C° 0 mm 3 mps 660 mmHg 15%
    19:00 +16°C° 0 mm 3 mps 660 mmHg 20%
    20:00 +15°C° 0 mm 4 mps 660 mmHg 19%
    21:00 +15°C° 0 mm 5 mps 661 mmHg 18%
    22:00 +15°C° 0 mm 5 mps 661 mmHg 18%
    23:00 +14°C° 0 mm 5 mps 661 mmHg 20%

    25 July, Thursday

    Time Temperature Precipitation Wind Pressure Humidity
    00:00 +13°C° 0 mm 5 mps 661 mmHg 23%
    01:00 +12°C° 0 mm 5 mps 661 mmHg 25%
    02:00 +12°C° 0 mm 4 mps 661 mmHg 29%
    03:00 +11°C° 0 mm 4 mps 660 mmHg 32%
    04:00 +10°C° 0 mm 4 mps 660 mmHg 36%
    05:00 +10°C° 0 mm 4 mps 660 mmHg 36%
    06:00 +10°C° 0 mm 4 mps 661 mmHg 35%
    07:00 +10°C° 0 mm 4 mps 661 mmHg 35%
    08:00 +14°C° 0 mm 4 mps 662 mmHg 28%
    09:00 +20°C° 0 mm 4 mps 663 mmHg 21%
    10:00 +25°C° 0 mm 5 mps 664 mmHg 14%
    11:00 +27°C° 0 mm 4 mps 664 mmHg 13%
    12:00 +29°C° 0 mm 3 mps 664 mmHg 11%
    13:00 +31°C° 0 mm 3 mps 664 mmHg 10%
    14:00 +30°C° 0 mm 2 mps 664 mmHg 9%
    15:00 +30°C° 0 mm 2 mps 663 mmHg 9%
    16:00 +30°C° 0 mm 1 mps 663 mmHg 9%
    17:00 +27°C° 0 mm 2 mps 663 mmHg 14%
    18:00 +23°C° 0 mm 2 mps 662 mmHg 19%
    19:00 +19°C° 0 mm 3 mps 662 mmHg 24%
    20:00 +17°C° 0 mm 2 mps 661 mmHg 32%
    21:00 +15°C° 0 mm 1 mps 661 mmHg 40%
    22:00 +14°C° 0 mm 1 mps 661 mmHg 47%
    23:00 +13°C° 0 mm 1 mps 661 mmHg 43%
    Show more